Tracking 25650 objects as of 16-May-2022
HD Live streaming from Space Station
objects crossing your sky now

FLOCK 3P 40

Track FLOCK 3P 40 now!
10-day predictions
FLOCK 3P 40 is classified as:


NORAD ID: 42010
Int'l Code: 2017-008BQ
Perigee: 464.9 km
Apogee: 471.8 km
Inclination: 97.3 °
Period: 93.8 minutes
Semi major axis: 6839 km
RCS: Unknown
Launch date: February 15, 2017
Source: United States (US)
Launch site: SRIHARIKOTA (SRI)
aabbcc
Your satellite tracking list
Your tracking list is empty




NASA's NSSDC Master Catalog

Two Line Element Set (TLE):
1 42010U 17008BQ  22135.43314961  .00034795  00000-0  10270-2 0  9997
2 42010  97.2777 202.4525 0005048  20.2206 339.9236 15.34886548291275
Source of the keplerian elements: AFSPC